TimeCDT,TemperatureF,Dew PointF,Humidity,Sea Level PressureIn,VisibilityMPH,Wind Direction,Wind SpeedMPH,Gust SpeedMPH,PrecipitationIn,Events,Conditions,WindDirDegrees,DateUTC
12:53 AM,64.9,48.0,54,29.78,10.0,Calm,Calm,-,N/A,,Partly Cloudy,0,2013-04-07 05:53:00
1:53 AM,57.9,46.9,67,29.79,10.0,Calm,Calm,-,N/A,,Clear,0,2013-04-07 06:53:00
2:53 AM,54.0,46.0,75,29.80,10.0,Calm,Calm,-,N/A,,Clear,0,2013-04-07 07:53:00
3:53 AM,52.0,45.0,77,29.81,10.0,Calm,Calm,-,N/A,,Clear,0,2013-04-07 08:53:00
4:53 AM,48.9,44.1,83,29.82,10.0,Calm,Calm,-,N/A,,Clear,0,2013-04-07 09:53:00
5:53 AM,48.0,44.1,86,29.83,10.0,Calm,Calm,-,N/A,,Clear,0,2013-04-07 10:53:00
6:53 AM,48.0,45.0,89,29.85,10.0,Calm,Calm,-,N/A,,Clear,0,2013-04-07 11:53:00
7:53 AM,48.0,44.1,86,29.87,10.0,Calm,Calm,-,N/A,,Clear,0,2013-04-07 12:53:00
8:53 AM,57.0,46.9,69,29.87,10.0,Calm,Calm,-,N/A,,Clear,0,2013-04-07 13:53:00
9:53 AM,64.0,48.0,56,29.86,10.0,SE,3.5,-,N/A,,Clear,140,2013-04-07 14:53:00
10:53 AM,68.0,46.9,47,29.87,10.0,SSE,4.6,-,N/A,,Clear,150,2013-04-07 15:53:00
11:53 AM,72.0,46.0,40,29.87,10.0,ESE,8.1,-,N/A,,Clear,120,2013-04-07 16:53:00
12:53 PM,75.0,45.0,34,29.84,10.0,SE,4.6,-,N/A,,Clear,130,2013-04-07 17:53:00
1:53 PM,75.0,44.1,33,29.83,10.0,SSE,8.1,-,N/A,,Clear,150,2013-04-07 18:53:00
2:53 PM,75.0,44.1,33,29.81,10.0,South,5.8,-,N/A,,Clear,180,2013-04-07 19:53:00
3:53 PM,77.0,42.1,29,29.78,10.0,ESE,4.6,-,N/A,,Clear,120,2013-04-07 20:53:00
4:53 PM,78.1,42.1,28,29.75,10.0,ESE,8.1,-,N/A,,Clear,120,2013-04-07 21:53:00
5:53 PM,77.0,41.0,28,29.74,10.0,SSE,6.9,-,N/A,,Partly Cloudy,160,2013-04-07 22:53:00
6:53 PM,73.9,45.0,35,29.75,10.0,SSE,3.5,-,N/A,,Overcast,150,2013-04-07 23:53:00
7:53 PM,71.1,46.9,42,29.75,10.0,Calm,Calm,-,0.00,Rain,Light Rain,0,2013-04-08 00:53:00
8:53 PM,63.0,53.1,70,29.76,9.0,North,5.8,-,0.04,Rain,Light Rain,360,2013-04-08 01:53:00
9:51 PM,60.8,55.4,82,29.65,8.0,ESE,33.4,41.4,0.06,Rain-Thunderstorm,Thunderstorms and Rain,110,2013-04-08 02:51:00
9:53 PM,61.0,55.0,81,29.61,7.0,ESE,31.1,41.4,0.07,Rain-Thunderstorm,Thunderstorms and Rain,110,2013-04-08 02:53:00
10:00 PM,60.8,55.4,82,29.71,7.0,SE,19.6,39.1,0.01,Rain,Light Rain,140,2013-04-08 03:00:00
10:53 PM,62.1,55.0,78,29.73,10.0,South,8.1,-,0.01,,Mostly Cloudy,170,2013-04-08 03:53:00
11:53 PM,63.0,55.9,78,29.71,10.0,SSE,12.7,-,N/A,,Scattered Clouds,160,2013-04-08 04:53:00